Wind_Speed
16 16 14 12 10 15 25 32 33 31 29 27 25 25 24 21 19 17 14 12 10 8 6 3 1 1 1 1 1 1 2 2 3 5 7 9 9 10 9 9 10 10 9 9 9 10 11 11 11 12 12 12 13 11 11 13 12 12 14 13 10 10 9 9 12 13 13 14 12 10 9 9 9 9 8 8 8 8 9 9 9 9 8 8 9
14 13 12 12 13 18 26 33 34 32 31 29 27 26 24 21 19 17 15 13 11 9 6 4 3 1 1 1 1 1 2 2 3 4 6 8 9 11 11 11 10 10 10 9 9 9 9 10 11 11 12 13 13 12 12 13 11 12 14 12 11 11 9 10 16 16 13 14 11 10 10 9 9 9 8 8 8 8 9 8 9 8 8 8 9
12 12 13 14 17 21 28 35 36 34 32 30 29 28 25 21 19 18 17 14 12 10 7 6 4 2 2 2 2 2 2 2 3 4 6 7 8 9 11 12 11 11 12 11 10 9 8 9 10 11 12 13 13 13 13 11 10 12 13 12 12 11 11 12 16 15 12 13 11 11 10 9 9 9 8 9 8 8 8 8 8 9 9 10 10
13 12 14 17 20 26 33 36 35 33 32 31 29 28 25 21 20 19 17 14 12 10 8 7 6 3 2 2 2 3 3 3 4 5 5 7 8 8 9 10 11 12 12 12 12 11 8 9 10 11 12 12 12 12 11 10 11 13 13 11 11 12 13 12 12 12 12 13 11 10 10 9 9 9 9 8 8 8 8 8 9 10 12 13 13
14 14 17 21 24 32 38 38 35 33 32 31 30 27 24 22 21 19 17 15 13 11 9 9 8 6 5 4 4 4 4 4 5 5 6 7 9 8 8 9 9 10 9 9 11 10 8 9 10 10 11 10 11 12 11 10 12 13 12 10 9 12 13 13 10 8 9 12 13 11 10 9 9 9 8 9 9 9 9 11 13 14 15 16 15
13 15 20 25 29 36 39 38 38 36 33 31 30 26 24 22 20 19 17 15 12 11 11 10 10 10 8 7 7 6 6 6 6 6 7 8 10 10 9 9 9 9 8 8 10 10 9 9 9 9 9 9 11 13 13 13 14 13 13 10 9 10 12 13 14 11 8 10 13 12 10 9 9 8 9 10 10 11 12 13 16 17 18 18 17
13 18 24 28 33 37 38 37 36 35 31 30 28 26 24 22 19 19 17 14 13 13 12 12 12 13 12 10 9 9 8 8 8 8 9 10 10 11 10 10 10 10 9 9 10 10 9 8 8 9 10 10 11 13 14 14 14 14 13 12 11 11 11 12 14 14 11 10 10 10 10 10 9 9 10 12 13 14 15 16 18 19 19 20 20
15 20 24 29 33 36 37 37 36 33 31 30 28 26 24 22 20 19 17 15 15 15 14 14 14 15 14 14 13 12 11 10 9 10 11 11 12 12 11 11 11 10 11 10 10 12 11 9 9 10 10 11 13 14 14 14 14 14 14 14 13 13 12 11 11 12 12 11 10 10 11 11 11 12 12 14 16 16 17 19 19 19 20 21 22
20 21 23 28 32 34 35 35 35 33 31 30 28 26 24 22 21 20 18 17 18 17 17 17 17 17 16 16 16 15 14 13 11 11 12 12 13 13 13 12 11 10 11 12 11 13 13 12 11 9 10 12 14 14 15 15 15 15 15 15 15 14 13 13 13 13 13 13 12 12 13 14 14 15 15 16 18 17 17 19 19 18 19 20 23
22 25 26 27 28 29 28 28 30 30 29 28 26 25 24 22 21 20 19 19 20 20 20 20 19 19 19 18 18 17 15 14 13 13 13 12 13 14 14 14 12 11 12 14 13 13 14 14 13 12 11 13 15 16 16 15 15 16 16 16 16 16 15 15 15 15 14 14 14 14 15 15 16 18 17 16 17 18 18 19 19 19 19 20 21
20 24 26 26 25 25 24 25 26 27 26 25 24 24 23 21 20 20 20 20 21 21 22 22 21 21 20 20 20 18 17 16 15 14 14 14 14 14 13 14 13 12 13 15 14 14 14 14 15 16 16 15 16 17 17 17 17 18 18 17 17 17 17 17 16 16 16 16 16 17 17 18 18 19 18 17 17 19 20 21 20 20 20 21 21
22 23 25 26 25 25 24 25 25 24 24 24 23 22 21 21 21 20 20 20 21 22 23 24 23 24 24 24 23 22 20 20 18 16 15 15 14 13 13 13 13 13 14 14 14 14 15 14 14 16 18 18 18 18 18 19 19 19 19 19 19 18 18 18 18 19 19 19 19 19 20 20 20 20 20 20 20 21 22 22 22 21 22 23 22
24 23 24 26 26 25 24 24 23 24 23 23 23 22 22 24 23 21 20 20 22 25 28 28 26 26 26 25 25 24 24 23 20 17 16 15 13 12 12 12 12 13 14 15 15 15 15 15 14 14 16 17 18 19 20 20 20 20 21 20 20 20 19 20 20 21 22 22 22 22 23 23 23 23 23 23 24 25 24 25 26 27 27 26 26
22 21 22 23 23 23 23 23 23 24 23 25 26 25 25 24 21 18 17 17 18 20 22 22 21 20 20 20 21 22 22 22 20 16 15 15 13 12 12 11 11 12 13 14 15 14 15 15 15 15 15 15 18 21 21 22 22 22 22 22 22 22 22 22 23 24 25 25 25 25 25 26 27 27 27 28 28 28 28 28 30 31 31 30 29
20 21 21 21 22 22 22 23 24 25 25 25 24 21 21 21 18 14 12 12 13 13 14 14 14 13 12 12 13 13 14 16 17 17 17 16 14 13 12 12 12 12 13 14 14 14 14 15 15 16 17 17 20 22 23 23 23 23 23 23 24 24 25 25 25 26 27 28 28 28 28 29 30 30 31 32 31 30 31 32 33 33 32 32 32
21 21 21 22 22 23 23 23 24 25 24 22 20 18 16 16 14 12 11 11 10 10 10 10 9 9 8 8 7 7 10 13 15 17 18 17 15 14 12 12 13 13 14 15 16 17 18 17 17 18 20 21 21 22 24 24 24 24 25 26 26 28 28 28 29 29 30 31 31 31 32 32 33 33 34 35 34 33 34 35 35 34 32 33 34
21 21 22 23 23 22 23 24 23 23 21 19 17 17 16 15 14 13 11 9 7 7 7 7 7 7 8 8 8 7 8 11 14 15 16 15 15 13 12 13 13 14 15 15 17 19 20 21 22 22 23 24 23 24 25 27 27 27 28 29 30 31 31 32 33 33 34 35 35 35 36 36 37 37 37 37 37 36 36 37 37 35 34 34 35
21 22 23 21 19 18 19 20 20 20 19 17 16 15 13 14 14 13 11 10 9 7 6 6 6 7 7 8 8 8 8 9 11 13 14 14 14 14 15 15 15 15 16 17 18 20 21 23 25 26 26 26 26 26 28 29 30 31 31 33 34 34 35 36 37 38 38 38 39 40 40 40 40 40 40 40 39 38 38 39 38 38 37 36 36
19 20 19 16 14 15 16 16 17 17 16 14 14 13 11 10 11 12 12 12 10 8 7 7 7 7 8 8 9 10 10 11 11 12 13 14 15 15 17 18 17 17 19 19 20 22 23 24 26 27 28 28 29 30 30 31 32 33 34 36 37 38 39 39 41 43 43 42 41 41 42 42 42 43 42 41 40 40 41 40 40 41 41 37 36
15 15 16 16 17 18 18 18 17 16 14 12 12 12 11 11 10 10 12 12 11 10 9 8 8 7 7 7 9 11 12 12 13 14 14 15 16 17 18 18 18 19 21 22 22 23 26 28 28 27 28 30 30 31 32 33 34 35 36 38 39 41 41 42 43 44 45 45 44 43 42 42 41 42 42 41 41 42 43 42 41 41 40 37 36
15 15 16 18 19 18 17 17 17 16 14 14 14 12 11 11 11 10 10 10 9 8 7 8 9 9 8 8 9 10 11 12 14 15 15 16 17 18 19 19 19 19 20 21 22 24 27 31 31 28 27 30 31 32 33 34 35 36 36 37 39 40 41 42 42 43 44 45 46 46 44 42 41 41 42 42 43 43 43 42 41 40 39 38 37
16 16 17 18 18 16 15 16 17 16 15 14 14 12 10 9 9 9 9 8 7 7 7 8 9 10 10 10 11 11 11 13 14 15 16 17 18 19 20 21 21 21 21 22 23 24 27 32 32 28 27 29 31 32 34 35 36 36 37 37 38 40 41 43 43 43 44 45 46 48 48 47 45 45 45 46 48 48 45 42 41 41 41 41 41
19 18 18 18 17 16 16 15 16 16 15 14 15 13 11 10 9 9 10 10 10 9 10 10 11 11 12 13 14 15 15 15 16 17 17 18 19 20 21 22 22 23 23 24 26 27 29 32 32 30 30 32 33 34 36 37 38 39 39 40 41 42 43 45 46 47 47 48 48 49 50 50 49 47 47 48 49 48 43 38 39 44 47 48 50
20 18 18 17 16 15 14 14 13 13 13 13 13 12 11 10 9 8 9 10 10 11 11 12 13 14 15 16 17 18 18 18 19 20 20 20 21 22 23 24 25 25 27 28 29 31 32 33 33 34 35 36 37 38 39 40 41 42 43 43 44 45 46 47 48 49 50 50 51 51 51 51 50 48 47 47 46 44 42 40 41 44 46 48 48
20 18 17 16 15 13 12 11 11 10 10 10 10 9 9 8 8 8 9 10 11 12 13 14 15 16 17 18 19 20 20 20 20 20 21 22 24 25 26 27 27 28 29 31 32 33 34 35 36 37 38 39 40 41 41 42 44 44 44 45 46 47 47 48 48 49 50 51 51 51 50 50 49 48 48 47 45 45 46 47 46 44 43 44 44
17 16 15 14 13 12 11 11 11 11 11 11 11 11 10 10 10 11 11 12 13 14 15 15 16 17 18 19 20 21 22 23 22 21 23 24 25 26 27 28 29 30 32 33 33 34 35 37 38 39 40 40 41 42 42 43 44 45 45 45 46 46 47 47 48 48 48 49 49 49 49 48 47 48 49 49 47 46 47 48 47 47 46 45 43
14 14 14 14 13 11 11 11 11 12 13 13 13 13 12 12 12 12 13 14 14 15 16 16 17 18 19 20 21 22 24 24 23 23 25 26 27 27 28 29 29 30 32 33 33 34 34 35 36 37 37 38 39 39 39 39 40 41 41 42 43 44 44 45 44 44 44 45 45 45 45 44 45 45 46 47 47 47 47 46 45 45 46 45 43
11 12 13 14 14 13 12 12 12 13 13 13 13 13 13 12 12 13 14 14 15 16 16 17 18 19 20 20 21 23 25 25 24 25 26 27 28 29 29 29 30 30 31 32 33 33 33 33 33 34 34 35 35 35 35 35 35 36 36 37 38 39 40 41 41 40 40 41 42 42 42 42 42 43 42 42 43 44 44 43 43 43 44 45 45
9 10 10 11 12 12 12 12 13 13 13 13 13 12 12 12 13 14 14 15 16 17 17 18 19 19 20 21 21 23 25 25 25 25 26 26 27 27 27 28 28 29 29 30 30 31 31 32 32 32 32 32 33 33 33 33 33 34 34 34 34 35 36 38 38 38 38 38 39 40 41 41 42 42 42 41 41 41 41 41 41 39 39 39 40
8 9 9 9 9 10 11 11 12 12 12 12 12 13 13 14 14 15 16 16 17 17 18 19 19 20 20 21 21 22 23 23 23 23 23 24 24 24 24 25 25 26 27 27 27 28 28 28 28 29 29 29 30 30 30 30 30 30 31 31 31 32 32 33 33 34 35 36 36 36 37 39 39 40 40 40 41 41 40 39 38 35 35 37 38
8 8 8 8 8 9 9 10 10 11 11 11 12 13 13 14 15 15 16 16 17 17 17 18 18 18 18 19 19 20 20 21 21 21 21 21 22 22 22 23 23 24 24 24 25 25 25 26 26 26 27 27 28 28 29 29 29 29 29 30 30 30 31 31 31 32 33 33 34 34 35 36 36 36 36 37 38 38 37 36 34 33 35 37 38
8 8 8 8 8 8 8 9 9 10 11 11 11 12 13 13 13 14 15 15 15 16 16 16 16 17 17 17 17 18 18 18 18 19 19 19 19 20 20 20 21 21 22 22 23 23 23 24 24 25 25 25 26 26 27 28 28 28 29 29 29 30 31 31 32 33 32 31 32 33 34 35 35 33 33 33 33 33 33 33 33 34 36 37 39
8 9 9 9 9 9 9 10 10 11 11 12 12 12 13 13 13 13 13 14 14 14 14 14 14 14 14 14 14 15 15 16 16 17 17 17 18 18 18 19 19 20 20 21 21 21 21 21 22 23 23 23 23 24 25 26 27 27 28 28 28 29 29 30 32 33 32 30 30 31 31 32 31 30 30 30 30 31 32 33 33 34 35 36 37
9 9 9 9 10 10 10 10 10 11 11 12 12 12 12 12 13 12 12 12 12 12 12 12 12 12 11 12 12 13 14 14 15 16 16 16 17 17 17 18 18 18 19 19 20 20 19 19 20 20 21 22 22 23 23 24 25 26 27 27 27 27 28 28 30 31 30 29 29 29 28 28 27 27 28 29 30 31 31 31 31 31 32 33 33
10 10 10 10 10 10 10 10 10 10 10 10 10 10 10 10 10 10 10 10 10 10 10 10 10 10 10 11 12 12 13 14 14 14 14 14 14 15 16 16 17 17 18 18 19 19 19 19 19 20 20 21 22 23 23 24 25 26 27 28 29 29 29 29 29 29 29 28 28 27 26 26 26 26 27 27 28 30 30 30 29 29 29 30 31
10 10 10 9 9 9 9 9 9 10 10 10 10 10 10 10 10 9 9 10 9 9 10 9 9 10 10 11 11 12 12 12 12 12 13 13 13 14 15 16 17 17 17 18 18 18 18 19 19 20 20 21 21 22 23 24 25 26 27 28 29 29 29 28 28 28 27 26 25 25 25 26 27 28 29 29 30 30 30 30 29 28 28 30 30
11 10 10 9 8 8 7 7 8 9 9 10 11 11 11 11 10 9 9 9 9 9 10 9 9 9 9 9 10 10 11 11 11 12 12 13 14 15 16 16 17 18 18 18 18 18 19 19 20 20 21 21 21 21 22 23 24 26 27 27 26 25 25 26 25 25 25 24 24 24 26 28 29 30 31 31 32 32 32 31 30 30 30 29 28
11 10 9 9 9 8 7 7 7 8 8 9 11 11 10 10 9 9 9 9 8 8 9 9 8 8 8 8 9 10 10 11 12 13 14 15 16 16 17 17 17 18 18 18 18 18 19 20 20 21 21 21 21 21 21 22 23 24 25 24 23 22 23 23 23 23 23 24 24 25 26 26 26 27 27 27 27 28 29 29 29 29 28 27 26
10 10 9 9 8 8 7 7 7 7 8 9 10 10 10 10 10 9 9 8 8 8 8 8 8 8 8 9 9 11 12 13 14 14 15 16 17 17 17 17 17 18 18 18 18 18 19 19 20 20 20 20 20 20 20 21 22 22 22 21 20 20 20 20 19 19 19 20 20 21 20 19 20 21 22 21 21 21 22 23 24 25 25 24 22
9 9 9 9 8 8 7 7 7 7 8 9 10 10 11 11 11 11 10 9 8 8 8 8 8 8 9 10 11 12 13 14 14 15 16 16 17 17 17 17 17 18 18 18 18 18 18 18 18 19 19 19 19 20 20 20 21 20 20 19 18 18 18 17 16 16 16 15 15 15 14 14 13 13 15 16 16 17 18 19 20 19 18 17 18
9 9 9 10 9 9 8 8 7 7 7 8 9 11 12 12 11 10 9 8 8 8 8 8 8 9 10 10 11 12 13 14 14 15 15 15 16 16 16 17 17 17 17 18 17 17 17 17 17 17 17 18 18 19 19 19 19 19 18 17 16 15 15 15 14 14 14 15 15 15 14 12 10 10 10 11 13 14 15 16 16 15 13 14 14
9 9 10 10 9 9 8 8 7 6 6 8 9 11 11 11 10 9 9 9 8 9 9 9 9 9 10 10 11 12 13 13 14 14 14 14 14 15 15 16 16 16 17 17 17 16 16 15 15 15 16 16 17 17 17 16 16 16 15 14 13 13 13 13 13 13 13 13 14 15 14 13 11 11 11 12 13 14 14 14 13 11 10 10 10
9 9 10 10 9 9 9 9 8 7 7 7 9 10 10 11 10 9 9 9 8 8 9 9 9 10 10 10 11 11 12 12 12 12 13 13 14 14 15 15 15 16 16 16 16 15 15 14 14 14 14 15 16 15 14 12 11 11 11 10 11 12 13 13 13 13 13 13 13 14 14 13 12 12 13 13 13 12 12 11 9 7 6 6 6
10 9 9 9 8 8 8 9 8 7 7 8 9 9 10 10 10 9 9 9 8 9 9 9 9 9 9 9 9 9 10 11 11 11 12 12 13 13 14 14 15 15 15 15 15 14 14 13 13 13 14 14 14 14 13 11 9 9 10 11 12 13 13 14 14 13 13 13 13 13 13 13 12 12 11 11 10 9 8 7 6 5 5 4 4
10 9 8 7 7 7 8 8 7 6 7 8 9 9 10 10 10 9 9 8 8 8 7 7 7 7 6 6 7 7 8 8 9 10 10 11 12 13 13 14 14 14 14 15 14 14 13 13 13 14 14 14 13 13 12 11 10 10 11 12 12 12 13 13 14 13 13 12 12 11 11 10 11 10 9 7 6 5 4 4 4 4 4 4 5
10 10 9 8 7 7 7 6 5 5 7 8 8 9 9 9 9 9 8 7 7 6 5 4 4 3 3 4 4 5 6 7 9 10 11 12 13 14 14 15 15 15 15 14 14 13 13 13 13 14 14 13 12 11 12 11 9 8 9 9 10 11 13 13 14 13 12 12 11 10 9 8 8 7 5 2 2 2 2 3 3 3 4 4 4
10 11 11 9 8 7 7 6 5 5 7 7 7 8 8 8 8 8 7 6 6 5 3 2 2 1 1 2 4 5 7 8 9 10 11 12 13 14 14 14 15 15 15 14 14 13 13 12 13 13 13 13 12 11 12 10 7 6 7 9 10 12 13 14 14 13 11 10 10 9 8 7 5 3 1 1 2 2 2 2 2 2 2 3 3
10 11 11 10 8 6 7 6 5 6 7 6 6 7 8 8 8 8 8 7 6 5 4 3 2 1 2 3 5 6 7 8 8 9 10 11 11 12 13 13 13 13 13 13 13 12 12 11 11 12 12 12 12 12 11 10 7 6 8 9 11 12 13 13 13 12 11 10 8 7 6 5 3 1 2 3 3 2 2 2 2 2 2 2 2
12 12 11 10 9 7 7 7 5 5 6 6 6 7 8 9 9 9 9 8 7 6 5 4 3 3 3 4 4 5 6 7 7 8 9 10 11 12 12 12 12 12 12 12 12 11 11 10 10 10 11 12 12 12 11 10 9 8 9 9 10 11 12 12 11 10 9 8 7 6 4 3 2 2 3 3 3 3 2 2 2 2 1 1 1
15 14 13 11 10 10 10 8 6 5 5 6 7 8 9 10 10 10 9 8 7 6 5 4 4 4 4 4 4 5 6 6 8 8 9 10 11 12 12 12 12 13 12 11 11 11 10 10 10 10 11 11 11 10 10 10 10 10 9 9 9 9 9 9 9 9 8 7 5 4 3 2 2 2 3 3 3 3 3 2 2 1 1 1 0
16 16 15 13 11 11 10 9 8 7 7 7 7 9 10 11 11 10 9 8 7 6 6 5 4 3 3 3 4 5 6 7 8 9 10 11 11 12 12 12 13 13 13 13 12 11 11 10 10 10 11 11 10 9 8 8 9 9 9 8 8 8 8 8 8 7 7 6 5 4 3 3 2 2 3 3 3 3 3 2 1 1 1 1 1
Wind_Direction
259 260 258 250 223 205 205 196 183 177 179 179 181 184 186 184 179 177 179 182 182 182 181 185 174 88 48 20 329 263 273 269 249 233 220 213 212 214 218 222 224 229 233 235 235 236 235 231 228 230 234 239 239 228 220 224 220 208 209 209 210 216 203 206 236 238 221 217 217 214 212 206 208 212 214 222 228 235 244 253 261 269 278 286 293
247 248 246 234 208 195 195 191 183 179 180 181 185 189 190 187 182 181 188 190 188 189 196 209 223 251 337 317 312 315 303 286 281 265 240 230 221 215 215 218 221 224 229 234 239 240 235 224 219 223 226 232 239 236 228 226 213 204 211 208 210 216 191 200 241 246 223 215 216 213 211 206 209 217 223 233 242 248 255 262 268 275 283 289 294
231 241 244 228 206 196 190 185 181 180 181 184 189 192 192 190 187 189 194 195 194 199 209 223 238 271 336 322 303 308 306 288 288 283 264 254 243 228 223 225 226 225 227 231 236 241 233 218 217 219 219 225 234 233 227 220 206 206 215 209 210 210 179 192 241 249 225 219 219 211 208 207 211 220 230 240 249 257 264 271 277 283 287 288 292
219 226 232 221 205 193 185 181 181 182 183 188 193 195 194 192 194 197 199 200 202 208 219 233 245 267 315 331 310 297 293 290 287 283 277 269 260 247 236 234 232 228 228 226 228 230 224 215 218 221 221 225 228 227 227 221 207 209 218 217 214 208 184 190 234 249 232 220 214 211 210 209 217 227 236 247 255 264 272 276 279 284 288 290 292
223 221 218 213 199 185 181 181 183 183 186 193 197 196 195 196 198 201 203 206 211 218 228 240 250 263 284 311 314 300 291 288 284 277 276 273 265 255 246 243 243 241 236 226 219 219 221 220 218 219 225 227 224 223 225 221 215 216 222 222 217 211 201 195 203 227 237 219 208 212 214 211 223 238 247 257 264 270 277 281 282 284 286 287 287
233 219 207 201 189 180 181 183 183 184 189 197 200 198 199 201 202 205 208 211 218 227 234 243 254 262 274 289 300 301 293 286 283 275 268 266 263 257 248 246 247 247 245 230 212 207 220 226 219 218 227 226 219 220 220 218 221 226 224 219 214 214 214 207 198 201 223 219 208 211 219 224 235 247 258 267 272 276 280 283 285 286 286 285 283
221 208 200 195 186 181 184 186 183 184 193 201 203 202 204 205 206 210 215 217 224 233 239 246 253 261 269 278 285 293 294 286 280 273 264 258 257 253 245 241 241 240 242 235 213 205 220 233 223 216 222 221 216 218 223 226 229 231 226 221 221 222 221 217 210 207 212 218 217 220 231 240 246 252 262 269 273 278 281 281 281 282 284 284 281
197 200 198 194 188 184 185 186 185 188 195 202 206 206 208 211 212 216 221 225 231 238 243 247 251 257 263 269 275 282 288 287 281 276 269 261 256 250 240 236 237 238 240 237 219 208 216 235 238 221 211 217 219 217 221 227 230 233 231 226 229 233 228 222 222 221 222 229 234 236 243 251 255 259 265 270 275 279 281 281 281 280 283 284 283
182 183 187 186 186 186 186 187 187 189 194 201 207 209 211 214 217 223 227 230 236 242 245 246 249 252 256 263 271 277 284 287 285 277 271 264 258 250 238 230 230 236 242 240 227 214 211 223 242 233 209 215 223 221 221 222 224 228 229 226 229 234 231 226 227 229 231 236 240 245 251 258 264 267 267 271 276 276 275 276 277 278 280 283 285
179 177 182 186 188 190 190 188 185 186 191 199 205 208 211 216 222 229 234 237 242 245 246 248 247 248 253 258 265 271 275 280 281 274 266 258 252 246 238 228 221 225 239 241 232 223 216 217 232 235 222 221 225 224 224 223 221 223 224 224 226 229 230 229 230 233 236 241 246 251 254 258 265 270 273 274 273 270 269 271 273 276 280 281 285
187 185 188 192 193 194 193 189 185 185 191 201 206 209 214 219 224 231 236 240 243 245 247 250 249 249 252 256 261 266 267 269 271 267 260 251 244 241 237 232 221 218 234 242 238 233 228 224 229 234 233 233 233 231 232 230 228 227 226 225 226 228 230 231 234 238 241 243 247 252 256 259 263 268 272 275 274 273 273 272 273 276 280 281 284
190 189 193 196 197 197 196 193 192 195 200 210 217 219 222 225 227 231 235 238 242 245 248 249 250 252 256 260 263 262 259 258 258 257 251 243 237 233 232 231 225 219 227 236 237 237 236 232 233 237 238 239 239 239 238 238 237 235 233 231 233 235 237 240 243 246 248 248 250 254 259 263 264 267 271 274 275 276 276 277 280 281 280 281 284
189 185 190 195 196 197 199 197 198 203 208 218 226 227 229 230 228 228 235 244 250 252 252 252 254 258 260 260 260 256 251 246 246 247 242 233 228 228 228 227 226 225 227 231 234 236 238 236 234 238 240 238 237 238 238 238 239 239 238 239 241 244 246 248 251 253 256 258 260 262 264 266 267 270 273 275 276 277 278 282 285 283 281 281 283
198 191 191 196 195 196 200 204 206 210 216 223 228 229 232 235 232 227 233 246 253 254 253 252 254 256 256 255 255 254 247 238 234 232 227 222 221 225 228 228 228 229 230 233 234 234 237 236 232 233 237 236 234 234 235 236 237 238 241 243 246 249 250 252 255 258 261 265 267 268 268 268 269 271 273 274 276 279 281 283 282 282 284 285 284
207 204 203 204 203 203 208 212 216 219 221 225 230 232 232 238 241 232 227 238 248 250 247 246 246 245 243 241 243 241 232 222 219 217 213 213 217 222 227 231 233 234 235 236 236 235 235 236 233 233 236 235 233 233 233 237 240 242 245 249 251 253 255 257 260 262 265 267 269 270 270 270 272 274 275 276 276 277 279 280 280 282 284 284 282
205 206 208 209 209 211 214 216 221 225 224 224 231 233 227 229 232 223 219 231 242 242 236 231 229 222 210 202 199 199 202 205 210 213 213 213 216 219 226 233 235 238 239 239 239 238 238 240 239 239 239 238 238 238 239 243 246 248 251 254 256 258 260 262 264 266 267 268 269 270 271 272 273 274 274 274 275 276 277 278 279 280 280 278 278
204 205 210 212 213 215 219 220 222 224 221 219 222 221 214 211 213 213 215 217 213 212 215 213 209 203 195 191 189 193 203 207 210 214 217 220 221 222 227 231 234 238 240 240 241 240 240 241 241 242 243 243 244 245 245 248 250 252 254 256 258 260 262 264 266 267 267 268 269 269 270 271 272 272 271 272 274 275 276 277 278 279 277 276 277
211 210 214 215 212 213 216 217 216 216 213 208 207 207 202 198 201 203 196 186 185 193 202 202 205 211 211 210 208 209 217 222 220 221 223 226 228 229 231 233 235 241 244 244 245 245 243 242 242 245 247 248 248 248 248 250 251 253 255 257 259 261 263 265 268 268 267 267 268 269 271 271 270 269 270 272 274 275 276 277 278 277 274 273 274
211 209 205 196 185 185 187 191 199 203 197 189 193 205 205 190 186 188 185 187 198 208 209 211 217 222 222 224 226 226 230 235 236 236 236 236 236 237 239 240 240 244 248 249 251 254 254 250 248 249 252 252 253 254 254 255 257 258 260 261 263 264 266 267 269 271 272 273 273 273 274 273 272 271 271 271 273 274 275 274 273 273 272 271 271
197 195 188 178 173 177 180 183 190 194 189 185 191 201 200 188 183 187 192 200 211 215 216 223 231 233 232 233 234 234 235 239 243 245 246 246 247 247 249 249 246 246 249 251 252 256 259 258 254 254 257 259 260 260 261 261 262 263 264 265 266 268 269 270 271 273 275 276 276 275 273 273 273 274 274 274 275 275 273 271 270 270 270 269 270
187 182 178 176 178 182 184 184 185 185 184 188 190 187 186 187 190 197 202 208 214 214 220 229 236 242 246 245 244 242 240 242 245 249 251 253 255 256 258 262 261 258 257 257 256 257 260 263 262 260 262 264 265 265 265 265 265 265 265 266 267 269 270 270 271 272 273 275 277 277 277 276 276 277 276 277 278 276 272 270 272 273 271 270 271
173 169 168 170 172 174 173 174 178 180 179 182 185 187 188 187 188 198 210 221 228 232 239 241 241 245 247 248 250 250 248 248 249 251 253 255 256 257 259 262 263 263 262 260 259 258 259 263 265 265 263 263 263 264 265 266 267 267 267 267 268 269 271 272 273 274 274 276 278 279 281 281 280 278 277 278 278 273 269 270 274 275 274 272 270
165 165 165 165 164 164 165 167 173 178 180 181 184 186 187 188 192 201 211 223 232 238 245 249 250 252 251 251 252 251 251 253 254 254 255 257 259 259 260 261 261 262 262 262 262 262 262 265 269 270 269 267 266 266 267 268 270 270 271 271 271 272 273 274 275 276 276 277 278 279 280 281 281 281 280 280 277 270 267 270 273 274 275 274 271
169 168 168 168 166 167 168 170 171 176 180 182 182 183 187 192 203 213 224 235 243 249 254 259 263 265 266 266 264 262 262 263 263 265 266 267 268 268 268 269 268 268 268 268 268 268 269 271 273 273 273 272 272 272 272 272 272 273 273 274 274 274 274 274 275 275 276 276 276 277 278 279 280 280 278 279 278 275 274 277 276 274 273 271 268
174 174 174 173 172 173 175 178 181 186 189 190 191 196 202 212 228 242 251 256 260 264 267 269 271 272 274 274 274 274 274 271 271 273 274 274 274 274 274 274 274 274 274 274 274 275 276 277 277 277 277 277 277 277 277 277 277 276 276 275 275 274 274 274 273 273 274 274 274 275 275 275 276 275 274 274 275 275 276 278 277 275 274 270 268
177 180 181 180 182 184 189 195 200 205 208 210 213 215 219 231 244 253 258 261 263 265 266 268 269 271 273 275 276 277 277 275 276 278 277 277 277 277 277 277 277 277 277 277 278 279 279 279 279 279 280 280 280 279 279 279 279 278 278 277 276 276 275 274 274 274 274 274 274 274 275 274 273 272 272 272 272 271 271 272 273 274 275 274 271
186 191 194 196 198 199 203 212 220 223 224 225 225 225 229 239 248 254 259 260 263 265 266 268 271 272 274 276 279 280 280 280 283 283 282 281 282 281 281 281 280 280 280 280 280 279 279 279 279 279 279 279 279 279 279 278 278 277 277 277 277 276 276 275 275 275 275 275 275 275 275 275 274 273 273 273 273 273 272 271 271 271 272 272 273
205 206 206 207 210 215 221 228 234 236 236 234 233 235 240 247 253 258 262 265 267 269 270 272 274 275 276 278 280 282 283 285 286 286 285 285 285 284 284 284 284 284 284 284 285 284 284 284 284 283 283 283 283 283 283 282 281 280 280 279 278 278 278 278 277 277 276 275 275 275 275 275 274 274 274 274 274 274 274 273 272 270 270 272 274
222 221 219 219 223 228 233 237 240 242 243 244 246 251 256 261 265 268 269 270 271 272 273 274 275 277 279 280 282 283 285 286 286 285 285 285 285 286 287 288 289 289 289 290 290 290 290 290 289 289 288 288 288 287 287 287 286 286 285 284 283 283 282 282 283 282 280 278 276 275 274 273 272 272 273 273 273 273 273 273 273 273 273 274 275
239 238 239 240 241 243 245 247 248 249 251 254 258 262 263 265 267 269 269 270 271 272 274 275 277 278 280 281 282 283 284 285 286 287 288 289 290 291 292 292 292 292 292 291 291 290 290 290 290 290 290 290 290 290 290 290 289 289 288 288 287 286 285 285 285 285 285 283 281 279 277 275 273 271 270 270 269 269 270 271 272 272 272 272 272
261 261 260 260 259 257 255 253 254 256 258 260 261 263 264 264 265 267 269 271 272 274 276 278 280 281 282 282 283 284 285 287 288 290 291 292 292 293 293 292 293 292 292 292 292 293 294 294 294 294 294 294 294 294 294 294 293 292 291 290 290 289 289 288 287 286 285 284 283 281 279 277 275 272 270 268 267 267 268 269 269 268 267 268 268
271 270 268 268 268 266 262 260 259 258 258 257 257 257 259 261 263 266 269 271 273 275 277 278 278 279 279 280 281 281 282 284 285 287 288 290 291 292 292 293 293 293 294 295 295 296 298 299 299 300 300 300 300 300 300 299 298 297 297 295 294 293 292 292 291 290 289 288 286 283 281 278 275 273 270 269 268 268 267 266 265 265 265 265 267
263 262 262 260 260 260 259 257 255 254 255 255 254 254 256 256 257 260 263 266 267 267 268 268 268 269 270 271 273 275 278 281 283 286 288 290 292 293 294 294 295 296 296 297 298 299 301 302 302 303 304 305 305 305 305 304 303 302 300 299 299 297 296 295 294 296 297 294 290 287 283 279 276 273 271 268 265 264 265 265 264 265 266 267 269
268 267 265 263 263 263 261 259 257 255 255 254 253 253 253 253 252 251 249 250 253 254 256 258 261 264 267 270 274 279 282 285 287 290 292 294 296 296 296 296 297 297 298 299 300 301 302 303 304 305 306 308 308 308 308 306 304 302 301 299 299 298 298 299 300 301 299 295 291 289 285 280 276 272 269 266 264 263 264 265 264 265 266 268 270
271 271 270 269 269 269 267 265 264 262 259 256 253 250 248 247 248 249 248 248 250 253 256 259 262 267 272 275 278 282 285 287 290 293 295 297 297 297 298 299 299 300 299 299 299 301 302 303 305 307 309 311 312 312 312 310 308 306 303 301 300 299 299 301 302 302 299 295 292 290 285 279 275 272 269 267 264 263 265 267 267 267 268 269 270
269 267 266 264 263 263 262 262 263 265 266 266 264 260 256 253 252 254 259 261 262 264 266 266 267 271 274 278 282 285 287 289 291 292 294 295 297 298 300 301 302 302 300 299 298 299 300 302 305 308 311 313 314 314 313 312 310 309 308 306 304 302 302 302 301 299 296 294 291 288 284 281 278 275 272 268 265 263 266 269 269 268 269 269 266
267 265 266 265 262 259 257 258 261 264 265 263 261 259 258 255 253 252 255 258 261 266 271 272 273 275 278 280 283 284 285 285 286 289 293 295 297 298 299 300 301 302 301 300 299 299 299 301 305 307 310 312 314 314 312 310 310 310 311 311 310 308 308 305 301 297 293 290 288 287 285 283 281 278 275 272 268 264 264 266 268 269 268 262 251
254 254 255 257 259 259 259 261 264 264 260 260 261 261 259 256 254 253 253 253 253 258 266 271 274 277 278 279 280 281 283 285 288 291 294 296 298 299 301 303 304 303 303 302 301 300 300 302 303 305 307 311 312 312 311 310 311 313 315 315 313 312 312 309 303 297 292 289 288 287 286 286 286 283 279 276 271 265 263 264 266 263 256 245 237
245 244 244 246 251 255 257 261 264 263 261 262 263 263 260 257 255 256 256 254 252 253 258 264 269 274 278 280 282 285 287 288 291 295 298 300 303 305 306 307 306 305 303 302 301 300 300 301 301 302 305 308 310 311 311 312 313 315 317 315 314 315 316 313 309 303 298 296 297 297 299 302 298 284 270 266 264 260 257 255 252 245 238 232 233
249 244 241 244 248 248 249 254 259 260 258 255 252 250 248 246 247 250 253 254 254 256 261 266 270 275 279 282 286 288 290 293 297 300 303 305 306 307 307 307 306 304 302 299 298 298 298 298 299 300 302 306 309 310 312 313 314 316 317 316 316 317 316 313 313 315 316 318 322 323 324 327 319 293 266 254 250 247 243 241 238 236 234 235 240
261 256 249 246 248 251 253 255 257 260 257 250 246 245 244 243 243 246 250 254 257 262 267 272 275 279 284 288 290 292 294 298 300 301 302 303 303 303 303 303 301 299 297 295 294 293 294 295 297 299 303 307 309 312 314 315 315 315 315 313 314 317 317 314 317 325 331 334 332 325 318 315 313 301 280 262 250 243 240 239 240 242 244 247 250
269 266 260 254 254 259 264 266 267 266 260 252 247 246 246 246 247 248 252 256 262 268 273 277 279 282 286 288 290 292 294 295 296 297 297 298 297 297 297 296 296 296 294 292 291 291 293 296 298 300 304 309 312 314 316 315 313 311 307 306 311 323 329 330 333 338 340 336 326 315 305 296 288 280 270 260 253 249 249 249 249 250 253 255 256
274 270 267 267 267 270 273 275 276 275 268 257 252 250 248 248 250 251 252 255 259 263 270 274 277 280 281 282 284 288 290 291 292 294 294 294 293 293 292 293 294 297 297 296 295 294 295 297 299 301 305 310 312 311 310 310 315 317 316 318 326 335 340 343 346 348 344 337 327 315 303 293 283 274 265 259 254 252 252 252 249 246 243 243 243
286 280 273 273 274 273 274 277 281 281 273 262 255 252 250 249 247 245 245 248 251 255 260 266 270 273 275 278 282 286 288 291 293 295 297 298 298 297 297 298 299 301 302 304 304 302 301 303 304 305 306 308 310 308 305 305 317 333 342 346 348 348 348 349 351 349 342 334 327 317 304 291 280 270 262 257 254 250 244 237 231 225 219 213 210
286 285 276 270 268 268 272 278 282 281 272 264 257 251 246 242 238 235 235 236 239 244 248 252 258 266 273 279 286 291 295 300 306 311 314 316 315 314 314 314 313 312 313 314 315 314 313 314 314 313 311 312 316 321 323 324 332 345 355 359 357 352 349 347 348 346 339 332 326 319 309 296 282 272 265 256 247 239 227 216 210 199 185 177 177
274 282 281 272 265 265 268 271 274 271 265 259 253 246 238 231 226 223 220 218 219 223 226 231 241 259 274 285 300 312 321 329 334 335 336 336 334 333 331 329 326 323 323 323 324 324 324 323 322 319 318 321 326 330 333 335 343 356 4 2 357 352 347 345 345 345 341 336 331 326 318 306 290 282 278 252 204 176 146 141 154 160 162 164 164
271 280 282 275 268 268 269 265 265 270 268 260 248 239 229 217 207 199 191 189 190 187 183 184 188 217 304 338 349 349 349 351 351 349 349 350 347 343 339 334 329 325 323 323 325 326 327 328 327 323 321 325 328 329 330 334 342 356 360 354 351 349 347 345 347 347 344 339 335 330 324 315 300 285 272 111 116 113 104 110 122 132 140 146 143
269 277 282 276 268 266 264 258 256 263 265 258 242 226 211 197 186 176 170 167 165 158 152 147 133 89 39 22 14 5 0 359 357 355 356 356 353 350 347 342 336 330 323 319 320 323 324 328 331 328 322 319 319 322 326 329 330 333 336 338 341 343 342 341 344 348 347 342 339 336 334 329 323 333 67 69 56 44 51 64 69 75 98 115 119
272 275 277 272 262 254 250 249 255 261 255 241 221 204 192 181 173 165 160 158 154 146 138 127 105 78 59 46 35 23 15 11 7 4 1 357 353 351 351 350 348 343 333 323 320 320 323 327 332 332 327 321 315 311 313 318 320 319 318 321 329 335 336 336 338 342 346 348 347 347 347 346 351 18 34 37 29 18 16 32 46 48 51 76 110
277 279 279 272 261 252 245 242 244 247 239 224 206 192 183 176 169 164 159 154 149 140 129 115 101 88 76 65 53 42 35 29 23 18 13 6 360 356 353 353 355 355 350 341 332 326 325 328 331 331 331 329 324 314 305 304 308 310 311 315 323 328 330 331 332 335 342 348 351 351 349 344 353 13 17 15 14 6 358 4 33 47 37 23 257
276 280 281 271 257 247 241 238 239 238 230 217 203 194 187 179 172 166 160 154 147 140 132 125 117 106 91 75 61 52 44 38 32 28 22 15 9 3 360 358 359 0 1 359 353 343 335 332 332 332 333 335 337 334 321 312 312 314 316 321 328 331 331 332 332 334 337 341 343 342 336 333 339 353 357 358 1 356 345 344 10 35 17 344 321
Height
3093 3095 3096 3097 3098 3099 3102 3106 3108 3111 3114 3118 3121 3124 3126 3128 3130 3131 3133 3134 3136 3137 3137 3138 3138 3138 3139 3139 3140 3140 3141 3141 3141 3142 3142 3143 3143 3144 3145 3145 3146 3146 3147 3148 3149 3150 3150 3151 3151 3152 3153 3153 3153 3154 3155 3156 3157 3158 3158 3159 3160 3161 3163 3162 3161 3162 3162 3162 3163 3163 3164 3165 3165 3166 3167 3167 3168 3169 3169 3170 3170 3170 3170 3170 3170
3092 3093 3094 3095 3097 3099 3101 3104 3107 3110 3114 3118 3120 3123 3125 3127 3129 3130 3132 3134 3135 3136 3137 3137 3138 3138 3138 3139 3139 3140 3140 3140 3141 3141 3142 3142 3143 3143 3144 3144 3145 3146 3146 3147 3148 3149 3149 3150 3150 3151 3152 3153 3152 3153 3153 3154 3156 3157 3157 3158 3159 3160 3162 3162 3160 3161 3162 3162 3162 3163 3163 3164 3165 3165 3166 3167 3168 3168 3168 3169 3169 3169 3169 3169 3169
3090 3091 3092 3094 3096 3098 3101 3103 3106 3110 3114 3117 3119 3122 3124 3125 3128 3130 3131 3133 3134 3135 3136 3137 3137 3137 3138 3138 3138 3139 3139 3140 3140 3141 3141 3142 3142 3142 3143 3143 3144 3145 3145 3146 3147 3147 3148 3149 3149 3150 3151 3152 3152 3153 3153 3153 3155 3156 3156 3157 3158 3160 3162 3162 3160 3160 3161 3161 3162 3162 3163 3164 3164 3165 3166 3166 3167 3167 3168 3168 3168 3168 3168 3168 3168
3088 3089 3091 3092 3094 3097 3100 3103 3106 3110 3113 3116 3119 3121 3122 3124 3126 3129 3130 3132 3133 3134 3135 3136 3136 3137 3137 3138 3138 3138 3139 3139 3139 3140 3140 3141 3141 3142 3142 3142 3143 3144 3145 3145 3146 3146 3147 3148 3148 3149 3150 3151 3152 3152 3152 3153 3154 3155 3155 3156 3157 3158 3160 3160 3159 3159 3160 3160 3161 3162 3162 3163 3164 3165 3165 3166 3166 3166 3166 3167 3166 3166 3166 3166 3166
3087 3088 3089 3090 3092 3096 3099 3102 3105 3109 3112 3115 3118 3120 3121 3123 3126 3128 3129 3131 3132 3133 3134 3135 3135 3136 3136 3137 3137 3138 3138 3138 3138 3139 3139 3140 3140 3141 3141 3141 3142 3143 3144 3144 3145 3145 3146 3147 3147 3148 3149 3150 3151 3151 3152 3153 3153 3154 3155 3155 3156 3157 3158 3159 3159 3159 3159 3159 3160 3161 3162 3163 3163 3164 3164 3164 3165 3165 3165 3165 3165 3165 3164 3164 3164
3086 3086 3088 3090 3092 3095 3099 3101 3104 3108 3111 3115 3117 3119 3121 3123 3125 3127 3128 3130 3131 3132 3133 3134 3134 3135 3136 3136 3136 3137 3137 3137 3137 3138 3138 3139 3139 3140 3140 3141 3141 3142 3143 3143 3144 3144 3145 3146 3147 3147 3148 3149 3150 3150 3151 3152 3152 3153 3154 3155 3156 3156 3157 3158 3159 3159 3159 3159 3159 3160 3161 3162 3162 3163 3163 3163 3163 3163 3163 3163 3163 3162 3162 3162 3162
3085 3086 3088 3091 3093 3096 3100 3102 3104 3108 3111 3115 3118 3119 3121 3122 3124 3126 3127 3128 3130 3130 3131 3132 3133 3134 3134 3135 3135 3136 3136 3136 3136 3137 3137 3138 3138 3139 3139 3140 3140 3140 3141 3142 3143 3144 3144 3145 3146 3146 3147 3147 3148 3149 3150 3151 3152 3152 3153 3154 3155 3154 3155 3157 3157 3158 3159 3159 3159 3159 3160 3160 3161 3161 3161 3161 3161 3161 3161 3161 3161 3160 3160 3160 3159
3085 3086 3089 3091 3094 3096 3099 3102 3105 3108 3111 3115 3118 3119 3120 3122 3123 3124 3126 3127 3128 3129 3130 3131 3131 3132 3133 3134 3134 3135 3135 3135 3135 3136 3136 3136 3137 3137 3138 3139 3139 3140 3140 3141 3142 3143 3143 3143 3144 3145 3146 3147 3147 3148 3149 3150 3151 3151 3152 3153 3153 3153 3154 3155 3156 3157 3157 3157 3158 3158 3158 3159 3159 3159 3160 3159 3159 3159 3159 3158 3158 3158 3157 3157 3156
3086 3087 3088 3091 3093 3096 3098 3102 3105 3108 3111 3114 3117 3118 3119 3120 3121 3122 3124 3125 3126 3127 3128 3129 3130 3130 3131 3132 3133 3133 3134 3134 3134 3135 3135 3135 3136 3136 3137 3138 3138 3139 3139 3140 3141 3142 3142 3143 3143 3144 3145 3146 3147 3147 3148 3148 3149 3150 3151 3152 3152 3153 3153 3154 3155 3155 3156 3156 3157 3157 3157 3157 3157 3157 3158 3158 3157 3157 3157 3156 3156 3156 3155 3154 3153
3087 3088 3089 3091 3093 3096 3099 3102 3104 3108 3111 3113 3115 3116 3117 3118 3119 3121 3122 3123 3124 3125 3126 3127 3127 3128 3130 3131 3131 3132 3132 3133 3133 3133 3133 3134 3134 3135 3136 3137 3137 3138 3139 3139 3140 3141 3141 3142 3143 3143 3144 3145 3146 3146 3147 3148 3148 3149 3149 3150 3151 3151 3152 3153 3154 3154 3154 3155 3155 3155 3155 3156 3155 3155 3156 3156 3156 3155 3155 3154 3154 3154 3153 3152 3151
3086 3088 3090 3092 3094 3097 3100 3101 3103 3106 3109 3111 3112 3114 3115 3117 3118 3119 3120 3121 3122 3123 3124 3124 3125 3126 3127 3128 3129 3130 3130 3131 3131 3132 3132 3133 3133 3134 3135 3136 3137 3138 3138 3138 3139 3139 3140 3141 3142 3143 3143 3144 3145 3145 3146 3147 3147 3148 3148 3149 3149 3150 3150 3151 3152 3152 3153 3153 3154 3154 3154 3154 3154 3154 3154 3154 3154 3153 3153 3152 3152 3152 3151 3150 3150
3084 3087 3090 3093 3095 3098 3099 3100 3102 3105 3107 3108 3110 3112 3113 3114 3115 3117 3118 3119 3120 3121 3121 3122 3122 3124 3125 3126 3127 3127 3128 3129 3130 3130 3131 3131 3132 3133 3134 3135 3135 3137 3137 3138 3138 3138 3139 3140 3141 3141 3142 3143 3143 3144 3145 3146 3146 3147 3147 3148 3148 3149 3149 3150 3151 3151 3151 3152 3152 3152 3152 3153 3152 3152 3152 3152 3152 3151 3150 3150 3150 3150 3149 3148 3147
3083 3086 3089 3091 3094 3097 3098 3100 3102 3104 3105 3107 3109 3110 3111 3112 3113 3115 3116 3117 3118 3118 3118 3119 3120 3121 3122 3123 3123 3124 3125 3126 3128 3128 3129 3130 3131 3132 3133 3133 3134 3135 3136 3136 3137 3138 3138 3139 3140 3140 3141 3141 3142 3143 3143 3144 3145 3145 3146 3146 3147 3147 3148 3149 3149 3149 3149 3150 3151 3151 3151 3151 3150 3150 3150 3150 3149 3149 3148 3148 3147 3146 3146 3145 3144
3084 3086 3088 3090 3092 3095 3096 3099 3101 3103 3104 3106 3107 3108 3109 3110 3111 3113 3114 3115 3115 3115 3115 3116 3117 3118 3119 3120 3120 3120 3121 3123 3125 3127 3127 3129 3130 3131 3131 3132 3133 3134 3134 3135 3136 3136 3137 3138 3139 3139 3139 3140 3140 3141 3141 3142 3143 3144 3144 3145 3145 3146 3146 3147 3147 3147 3148 3148 3148 3149 3149 3149 3148 3148 3148 3147 3147 3147 3146 3145 3144 3142 3142 3141 3140
3084 3086 3087 3089 3091 3093 3095 3097 3099 3100 3102 3103 3105 3106 3107 3108 3109 3111 3112 3113 3113 3113 3113 3114 3115 3116 3117 3117 3117 3118 3119 3121 3123 3124 3126 3127 3128 3129 3130 3131 3132 3132 3133 3134 3135 3135 3136 3136 3137 3138 3138 3138 3138 3139 3140 3140 3141 3142 3142 3143 3143 3143 3144 3144 3145 3145 3145 3146 3146 3146 3146 3146 3146 3146 3145 3144 3145 3144 3143 3142 3140 3139 3139 3137 3136
3083 3085 3087 3088 3090 3092 3094 3095 3097 3098 3100 3102 3103 3104 3105 3106 3107 3109 3110 3111 3111 3112 3112 3113 3114 3115 3116 3116 3117 3118 3119 3120 3122 3124 3125 3126 3127 3128 3129 3130 3130 3131 3132 3133 3133 3134 3135 3135 3136 3136 3136 3136 3137 3138 3138 3139 3139 3140 3140 3141 3141 3141 3141 3142 3142 3143 3143 3143 3143 3143 3143 3143 3143 3143 3142 3141 3141 3141 3140 3138 3136 3136 3135 3133 3131
3082 3084 3086 3087 3088 3091 3092 3094 3095 3097 3098 3100 3101 3103 3104 3105 3106 3108 3109 3110 3111 3111 3112 3113 3114 3115 3115 3116 3117 3118 3119 3121 3122 3123 3124 3125 3126 3127 3128 3128 3129 3130 3131 3131 3132 3132 3133 3133 3134 3134 3133 3134 3136 3137 3137 3137 3137 3138 3138 3138 3138 3138 3138 3138 3138 3139 3139 3139 3138 3138 3138 3138 3138 3138 3138 3137 3136 3136 3135 3133 3132 3131 3130 3128 3127
3081 3083 3084 3085 3087 3089 3090 3092 3093 3095 3096 3098 3100 3101 3103 3104 3105 3107 3108 3109 3110 3111 3112 3113 3114 3114 3115 3116 3117 3118 3119 3121 3122 3123 3123 3124 3125 3126 3127 3127 3128 3129 3129 3130 3130 3130 3130 3131 3131 3131 3131 3132 3134 3134 3135 3135 3135 3135 3135 3135 3135 3134 3135 3135 3134 3133 3133 3134 3134 3133 3133 3133 3133 3132 3132 3132 3131 3131 3130 3128 3128 3125 3123 3122 3122
3080 3082 3083 3085 3087 3088 3089 3091 3093 3094 3095 3096 3098 3100 3102 3104 3105 3106 3107 3109 3110 3110 3111 3112 3113 3114 3114 3115 3116 3117 3119 3120 3121 3122 3122 3123 3124 3125 3125 3125 3127 3127 3127 3128 3129 3128 3127 3128 3129 3129 3129 3130 3131 3131 3132 3132 3132 3132 3132 3131 3131 3131 3130 3131 3129 3127 3127 3128 3129 3128 3128 3127 3126 3126 3126 3126 3126 3125 3124 3123 3123 3119 3116 3116 3115
3080 3082 3084 3086 3087 3088 3089 3090 3092 3093 3095 3096 3098 3100 3101 3103 3104 3105 3107 3108 3109 3110 3110 3111 3112 3113 3113 3115 3116 3116 3117 3118 3119 3120 3121 3122 3122 3123 3123 3123 3124 3125 3125 3126 3127 3126 3125 3124 3126 3127 3127 3128 3128 3128 3128 3129 3128 3128 3128 3128 3127 3126 3125 3126 3125 3123 3122 3122 3122 3123 3123 3122 3121 3120 3120 3120 3120 3119 3118 3117 3116 3114 3111 3111 3110
3081 3082 3084 3086 3087 3088 3089 3091 3092 3093 3095 3096 3098 3099 3101 3102 3104 3105 3106 3107 3108 3109 3109 3110 3111 3112 3113 3114 3114 3115 3115 3116 3117 3118 3119 3120 3120 3121 3121 3121 3121 3122 3123 3123 3124 3124 3122 3120 3121 3125 3126 3125 3125 3124 3124 3124 3124 3124 3124 3123 3122 3121 3120 3120 3120 3119 3118 3116 3116 3115 3115 3115 3115 3115 3114 3114 3113 3113 3112 3111 3110 3109 3107 3106 3106
3081 3082 3084 3085 3087 3088 3089 3091 3092 3093 3095 3096 3097 3099 3100 3101 3103 3104 3105 3106 3107 3107 3108 3109 3110 3111 3111 3112 3113 3113 3114 3115 3115 3116 3117 3117 3118 3118 3119 3119 3119 3119 3120 3120 3120 3121 3119 3117 3118 3122 3123 3122 3121 3121 3120 3120 3119 3119 3119 3119 3118 3117 3115 3114 3114 3114 3113 3112 3110 3109 3108 3108 3109 3109 3108 3108 3106 3105 3105 3106 3105 3103 3102 3102 3101
3081 3082 3083 3085 3086 3087 3089 3090 3092 3093 3094 3095 3097 3098 3100 3101 3102 3103 3104 3105 3106 3106 3107 3108 3108 3109 3110 3110 3111 3111 3112 3113 3113 3114 3114 3115 3115 3115 3116 3116 3116 3116 3117 3117 3117 3116 3116 3115 3115 3117 3118 3117 3117 3116 3116 3115 3115 3114 3114 3114 3113 3112 3110 3109 3108 3107 3106 3106 3104 3103 3102 3101 3101 3101 3100 3099 3097 3096 3098 3100 3099 3097 3096 3095 3093
3080 3081 3083 3084 3085 3087 3088 3090 3091 3092 3094 3095 3096 3097 3099 3100 3101 3102 3103 3104 3104 3105 3105 3106 3106 3107 3107 3107 3108 3108 3109 3110 3110 3111 3111 3112 3112 3112 3112 3113 3113 3113 3113 3113 3112 3112 3112 3112 3112 3112 3111 3111 3111 3110 3110 3109 3109 3108 3108 3107 3106 3105 3104 3103 3102 3100 3099 3099 3097 3097 3096 3095 3094 3094 3092 3091 3091 3091 3092 3092 3091 3089 3088 3086 3085
3079 3080 3082 3083 3084 3086 3087 3088 3090 3091 3092 3094 3095 3096 3097 3098 3099 3100 3101 3102 3102 3103 3103 3104 3104 3104 3104 3104 3105 3105 3106 3106 3107 3108 3108 3108 3108 3108 3108 3108 3108 3108 3108 3108 3107 3107 3107 3107 3106 3106 3105 3105 3104 3104 3103 3103 3102 3101 3101 3100 3099 3098 3097 3096 3095 3093 3092 3091 3091 3090 3090 3090 3089 3087 3084 3084 3086 3086 3086 3085 3084 3083 3083 3082 3081
3079 3080 3081 3082 3083 3085 3086 3087 3088 3090 3091 3092 3093 3094 3095 3096 3097 3098 3099 3100 3100 3101 3101 3101 3102 3102 3102 3102 3102 3102 3102 3102 3103 3105 3104 3104 3104 3104 3104 3104 3104 3104 3103 3103 3103 3102 3102 3101 3101 3100 3099 3099 3098 3097 3097 3096 3095 3094 3093 3092 3091 3090 3089 3088 3087 3086 3085 3084 3084 3083 3082 3082 3082 3080 3078 3078 3079 3079 3079 3079 3078 3078 3077 3077 3076
3079 3080 3081 3082 3083 3084 3085 3087 3088 3089 3090 3091 3092 3093 3094 3094 3095 3096 3097 3098 3098 3099 3099 3099 3100 3100 3099 3099 3099 3099 3098 3098 3100 3100 3100 3100 3100 3100 3100 3100 3099 3099 3098 3098 3098 3097 3097 3096 3096 3095 3094 3093 3092 3092 3091 3090 3089 3088 3087 3086 3085 3083 3082 3081 3080 3080 3079 3078 3077 3076 3076 3075 3074 3073 3072 3072 3072 3071 3072 3072 3071 3071 3071 3070 3069
3079 3080 3081 3082 3083 3084 3085 3086 3087 3088 3088 3089 3090 3091 3092 3092 3093 3094 3095 3096 3096 3097 3097 3097 3097 3097 3097 3097 3097 3095 3095 3095 3096 3096 3095 3095 3095 3095 3095 3094 3094 3094 3093 3092 3092 3091 3091 3090 3090 3089 3088 3087 3086 3085 3085 3084 3083 3082 3081 3080 3079 3078 3076 3075 3074 3074 3073 3072 3071 3070 3069 3069 3067 3066 3066 3066 3065 3065 3065 3065 3064 3064 3064 3064 3063
3078 3079 3080 3081 3082 3083 3084 3085 3085 3086 3087 3088 3088 3089 3090 3090 3091 3092 3093 3094 3094 3094 3094 3094 3094 3094 3094 3094 3093 3092 3092 3092 3092 3092 3091 3091 3091 3090 3090 3090 3089 3089 3088 3087 3087 3086 3085 3085 3084 3083 3083 3082 3081 3080 3079 3078 3077 3076 3075 3074 3074 3072 3071 3070 3068 3068 3067 3066 3065 3064 3064 3063 3061 3060 3060 3060 3059 3059 3059 3058 3058 3058 3058 3058 3058
3077 3078 3079 3080 3081 3082 3082 3083 3084 3085 3086 3086 3087 3087 3088 3089 3089 3090 3091 3091 3091 3091 3091 3091 3091 3091 3090 3090 3090 3089 3089 3088 3088 3088 3087 3087 3086 3086 3086 3085 3085 3084 3084 3083 3083 3082 3081 3081 3080 3079 3078 3077 3076 3075 3074 3073 3072 3071 3070 3069 3068 3067 3066 3065 3064 3062 3061 3060 3060 3059 3058 3057 3056 3055 3055 3054 3053 3053 3053 3053 3053 3053 3053 3053 3053
3076 3077 3078 3079 3080 3080 3081 3082 3083 3083 3084 3085 3085 3086 3086 3086 3087 3087 3088 3088 3088 3088 3088 3087 3087 3087 3087 3086 3086 3086 3086 3085 3085 3084 3084 3083 3083 3083 3082 3082 3082 3081 3080 3080 3079 3078 3077 3077 3076 3075 3074 3073 3072 3071 3070 3069 3068 3067 3066 3065 3064 3062 3061 3060 3059 3058 3056 3055 3054 3053 3052 3051 3050 3049 3049 3048 3048 3048 3048 3048 3048 3048 3048 3048 3047
3076 3076 3077 3078 3078 3079 3080 3080 3081 3081 3082 3083 3083 3084 3084 3084 3084 3084 3084 3085 3085 3084 3084 3084 3084 3084 3084 3084 3083 3083 3083 3082 3082 3082 3081 3081 3081 3080 3080 3079 3079 3078 3077 3076 3076 3075 3074 3073 3072 3071 3070 3069 3068 3067 3065 3064 3063 3062 3061 3060 3059 3057 3056 3054 3053 3051 3051 3050 3049 3047 3046 3045 3044 3044 3043 3043 3042 3042 3043 3043 3043 3043 3043 3042 3042
3076 3076 3077 3077 3077 3078 3078 3079 3079 3080 3080 3080 3081 3081 3081 3082 3082 3082 3082 3082 3082 3082 3082 3082 3082 3082 3082 3081 3081 3081 3081 3080 3080 3080 3079 3079 3078 3078 3077 3077 3076 3076 3075 3074 3073 3072 3072 3071 3069 3068 3067 3066 3065 3064 3062 3061 3059 3058 3057 3055 3054 3053 3051 3049 3047 3046 3045 3044 3043 3042 3041 3040 3039 3039 3038 3038 3038 3038 3038 3039 3038 3038 3038 3038 3038
3074 3074 3075 3075 3075 3076 3076 3076 3077 3077 3077 3078 3078 3078 3079 3079 3079 3079 3080 3080 3080 3080 3080 3079 3079 3079 3079 3079 3079 3079 3078 3078 3078 3077 3077 3077 3076 3076 3075 3074 3074 3073 3072 3071 3071 3070 3069 3068 3067 3066 3065 3064 3062 3061 3060 3058 3056 3055 3053 3052 3051 3049 3047 3045 3044 3042 3041 3040 3038 3037 3036 3036 3035 3035 3034 3034 3033 3033 3034 3034 3034 3034 3034 3034 3034
3072 3072 3072 3073 3073 3073 3073 3073 3074 3074 3074 3075 3075 3075 3076 3076 3076 3076 3077 3077 3077 3077 3077 3077 3077 3077 3077 3077 3077 3077 3076 3076 3076 3075 3075 3075 3074 3074 3073 3072 3072 3071 3070 3070 3069 3068 3067 3066 3065 3064 3062 3061 3060 3058 3057 3055 3053 3052 3050 3048 3047 3045 3044 3042 3040 3038 3037 3035 3034 3033 3032 3032 3031 3031 3030 3030 3030 3029 3029 3029 3029 3029 3030 3030 3030
3070 3070 3070 3071 3071 3071 3071 3071 3072 3072 3072 3072 3072 3073 3073 3074 3074 3074 3074 3074 3074 3074 3074 3075 3075 3075 3075 3075 3075 3075 3075 3074 3074 3074 3073 3073 3073 3072 3071 3071 3070 3069 3068 3068 3067 3066 3065 3064 3062 3061 3060 3059 3057 3056 3054 3052 3050 3049 3047 3045 3043 3042 3040 3038 3037 3035 3033 3032 3031 3029 3028 3028 3027 3027 3026 3026 3026 3026 3026 3026 3026 3026 3027 3027 3027
3068 3068 3068 3069 3069 3070 3070 3070 3070 3070 3070 3070 3071 3071 3071 3071 3072 3072 3072 3072 3072 3072 3072 3073 3073 3073 3073 3073 3073 3073 3073 3073 3072 3072 3072 3071 3071 3070 3070 3069 3068 3067 3066 3065 3064 3063 3062 3061 3060 3059 3058 3057 3055 3054 3052 3050 3048 3046 3044 3042 3040 3038 3036 3035 3033 3031 3030 3029 3027 3026 3025 3024 3023 3022 3022 3022 3022 3022 3022 3022 3023 3023 3024 3023 3023
3067 3067 3067 3067 3068 3068 3068 3068 3069 3069 3069 3069 3068 3068 3068 3069 3069 3070 3070 3071 3071 3071 3071 3071 3071 3071 3071 3071 3071 3071 3071 3071 3071 3070 3070 3070 3069 3068 3068 3067 3066 3065 3064 3063 3062 3061 3060 3059 3058 3057 3055 3054 3053 3051 3049 3047 3045 3043 3041 3039 3037 3035 3034 3032 3030 3028 3027 3026 3024 3023 3022 3020 3019 3018 3018 3017 3017 3018 3018 3019 3020 3020 3021 3021 3021
3065 3066 3066 3066 3066 3067 3067 3067 3067 3067 3067 3067 3067 3067 3067 3067 3067 3068 3068 3069 3069 3070 3070 3070 3070 3070 3070 3070 3070 3069 3069 3069 3069 3068 3068 3067 3067 3066 3065 3064 3063 3063 3062 3061 3060 3059 3058 3057 3056 3054 3053 3052 3050 3048 3047 3045 3043 3041 3039 3037 3035 3033 3031 3029 3028 3026 3025 3023 3021 3020 3018 3017 3016 3015 3014 3014 3014 3015 3016 3016 3017 3018 3018 3018 3019
3064 3064 3065 3065 3065 3065 3066 3066 3066 3066 3066 3066 3066 3066 3066 3066 3066 3067 3067 3067 3068 3068 3068 3068 3068 3068 3068 3068 3068 3067 3067 3067 3066 3066 3065 3065 3064 3064 3063 3062 3061 3061 3060 3059 3058 3057 3056 3055 3054 3052 3051 3049 3047 3046 3044 3042 3040 3039 3037 3035 3033 3031 3029 3028 3026 3024 3022 3021 3019 3018 3017 3016 3015 3014 3014 3014 3014 3014 3015 3015 3016 3017 3017 3017 3017
3062 3063 3063 3063 3064 3064 3064 3064 3064 3064 3064 3064 3064 3064 3064 3065 3065 3065 3066 3066 3066 3066 3066 3066 3066 3066 3066 3066 3066 3065 3065 3065 3064 3064 3064 3063 3063 3062 3061 3061 3060 3059 3058 3057 3056 3055 3054 3052 3051 3050 3048 3047 3045 3043 3041 3040 3038 3036 3035 3033 3032 3030 3028 3026 3024 3023 3021 3020 3019 3018 3017 3016 3016 3015 3015 3015 3015 3015 3015 3015 3016 3016 3016 3016 3016
3061 3061 3061 3062 3062 3062 3062 3062 3063 3063 3063 3062 3062 3062 3063 3063 3063 3064 3064 3064 3064 3064 3064 3064 3064 3064 3064 3064 3064 3064 3064 3064 3063 3063 3063 3062 3061 3061 3060 3059 3058 3057 3056 3055 3054 3052 3051 3050 3049 3047 3046 3044 3043 3041 3039 3038 3036 3035 3033 3032 3030 3029 3027 3025 3023 3022 3021 3020 3019 3018 3017 3017 3016 3016 3016 3015 3015 3015 3015 3015 3015 3015 3015 3015 3015
3060 3060 3060 3060 3060 3061 3061 3061 3061 3061 3061 3060 3060 3060 3061 3061 3061 3062 3062 3062 3062 3062 3062 3062 3062 3063 3063 3063 3063 3063 3063 3062 3062 3062 3061 3060 3060 3059 3058 3057 3056 3055 3053 3052 3051 3050 3049 3048 3047 3045 3044 3042 3041 3039 3038 3036 3035 3033 3032 3031 3029 3028 3026 3025 3023 3022 3021 3020 3019 3018 3017 3016 3016 3015 3015 3015 3014 3014 3014 3014 3014 3014 3015 3015 3015
3059 3059 3059 3059 3059 3059 3059 3059 3059 3059 3059 3059 3059 3059 3059 3059 3060 3060 3060 3061 3061 3061 3061 3061 3062 3062 3062 3062 3062 3062 3061 3061 3060 3060 3059 3058 3058 3057 3056 3055 3054 3052 3051 3050 3049 3048 3047 3046 3044 3043 3042 3041 3039 3038 3036 3035 3034 3032 3031 3029 3028 3027 3026 3024 3023 3022 3021 3020 3019 3018 3017 3016 3015 3015 3014 3014 3014 3014 3014 3014 3014 3014 3015 3015 3016
3059 3058 3058 3058 3058 3058 3058 3058 3057 3057 3057 3057 3057 3057 3057 3058 3058 3059 3059 3060 3060 3060 3061 3061 3061 3061 3061 3061 3061 3060 3060 3059 3059 3058 3057 3056 3055 3054 3053 3052 3051 3050 3049 3048 3047 3046 3045 3044 3042 3041 3040 3039 3037 3036 3035 3034 3032 3031 3030 3029 3028 3027 3026 3025 3023 3022 3021 3020 3019 3018 3017 3016 3015 3014 3014 3014 3014 3014 3014 3014 3014 3015 3015 3016 3016
3058 3058 3057 3057 3057 3057 3057 3057 3056 3056 3056 3056 3056 3056 3056 3057 3057 3058 3058 3059 3059 3059 3060 3060 3060 3060 3060 3060 3060 3059 3059 3058 3057 3056 3055 3054 3053 3052 3051 3050 3049 3048 3047 3046 3045 3044 3043 3042 3041 3040 3039 3037 3036 3035 3034 3033 3032 3030 3029 3029 3028 3027 3026 3025 3023 3022 3021 3020 3019 3018 3018 3017 3016 3015 3015 3015 3015 3014 3014 3015 3015 3015 3016 3016 3016
3057 3057 3056 3056 3056 3056 3056 3056 3056 3056 3056 3055 3055 3055 3056 3056 3056 3057 3057 3058 3058 3059 3059 3059 3059 3060 3059 3059 3059 3058 3057 3057 3056 3055 3054 3053 3052 3051 3050 3049 3048 3047 3046 3045 3044 3043 3042 3041 3040 3039 3038 3037 3036 3035 3034 3033 3032 3031 3030 3029 3028 3027 3026 3025 3024 3022 3021 3020 3019 3019 3018 3017 3017 3016 3016 3016 3016 3016 3015 3015 3016 3016 3016 3016 3016
3056 3056 3055 3055 3055 3056 3055 3055 3055 3055 3055 3055 3055 3055 3055 3055 3056 3056 3057 3057 3058 3058 3059 3059 3059 3059 3058 3058 3057 3057 3056 3056 3055 3054 3054 3053 3052 3051 3050 3048 3047 3046 3045 3044 3043 3042 3041 3040 3039 3038 3037 3036 3035 3034 3033 3032 3031 3031 3030 3029 3028 3027 3026 3025 3024 3023 3022 3021 3020 3019 3018 3018 3017 3017 3017 3016 3017 3017 3016 3016 3016 3017 3017 3017 3017
3055 3055 3055 3054 3054 3054 3055 3054 3054 3054 3054 3054 3054 3054 3055 3055 3056 3056 3057 3057 3057 3058 3058 3058 3058 3058 3058 3057 3057 3056 3056 3055 3055 3054 3053 3052 3051 3050 3049 3048 3047 3046 3044 3043 3042 3041 3040 3039 3038 3037 3036 3035 3034 3034 3033 3032 3031 3030 3029 3029 3028 3027 3026 3025 3024 3023 3022 3021 3020 3019 3019 3019 3018 3018 3018 3017 3017 3017 3017 3017 3017 3017 3017 3017 3017
3053 3053 3053 3053 3053 3053 3053 3053 3054 3054 3054 3054 3054 3055 3055 3055 3056 3056 3056 3057 3057 3057 3057 3057 3057 3057 3057 3057 3057 3056 3056 3055 3054 3054 3053 3052 3051 3050 3049 3048 3047 3045 3044 3043 3041 3040 3039 3038 3037 3036 3035 3034 3033 3033 3032 3031 3031 3030 3029 3028 3027 3026 3026 3025 3024 3023 3023 3022 3021 3020 3020 3020 3019 3019 3018 3018 3018 3018 3018 3018 3018 3017 3018 3018 3018
3052 3052 3052 3052 3052 3052 3052 3053 3053 3053 3053 3054 3054 3055 3055 3056 3056 3056 3056 3056 3057 3057 3057 3057 3057 3057 3057 3057 3056 3056 3056 3055 3054 3054 3053 3052 3051 3050 3049 3047 3046 3045 3044 3042 3041 3040 3039 3038 3037 3036 3035 3034 3033 3032 3031 3031 3030 3029 3028 3028 3027 3026 3025 3025 3024 3023 3023 3022 3022 3021 3021 3020 3020 3020 3019 3019 3019 3018 3018 3018 3018 3018 3018 3018 3018